Location: Bishop�s Knoyle
(51.0728°N, 2.1714°W)
Time: 10:39:50
(UTC+00:00)

MOZHAYETS 4 - Visible Passes

Search period start: 01 December 2021 00:00
Search period end: 11 December 2021 00:00
Orbit: 660 x 680 km, 98.2° (Epoch: 30 November)

Date Brightness Start Highest point End Pass type
(mag) Time Alt. Az. Time Alt. Az. Time Alt. Az.
01 Dec 10.2 17:05:58 10° NNW 17:08:38 16° NW 17:11:19 10° W visible
04 Dec 10.2 17:07:22 10° NNW 17:09:59 15° NW 17:12:37 10° W visible
06 Dec 9.7 16:35:08 10° N 16:38:53 26° WNW 16:42:38 10° WSW visible
07 Dec 10.2 17:08:47 10° NNW 17:11:21 15° NW 17:13:55 10° W visible
09 Dec 9.7 16:36:30 10° N 16:40:14 25° WNW 16:43:58 10° WSW visible
10 Dec 10.3 17:10:11 10° NNW 17:12:42 15° NW 17:15:12 10° W visible
